Location: Helsinki
(60.1699°N, 24.9384°E)
Time: 22:05:58
(UTC+03:00)

Vanguard 1 Rocket - All Passes

Search period start: 02 October 2022 00:00
Search period end: 12 October 2022 00:00
Orbit: 651 x 4225 km, 34.3° (Epoch: 02 October)

Date Brightness Start Highest point End Pass type
(mag) Time Alt. Az. Time Alt. Az. Time Alt. Az.
02 Oct - 00:22:43 10° SW 00:27:23 13° SSW 00:31:08 10° S visible
02 Oct - 20:42:58 10° SSW 20:52:00 16° SSE 20:58:50 10° SE visible
02 Oct - 23:08:36 10° SW 23:16:34 17° S 23:22:21 10° SSE visible
03 Oct - 19:32:09 10° S 19:40:19 14° SSE 19:46:55 10° SE visible
03 Oct - 21:55:08 10° SW 22:05:22 19° S 22:12:35 10° SE visible
04 Oct - 00:23:58 10° SW 00:29:15 14° SSW 00:33:26 10° S visible
04 Oct - 18:24:44 10° SSE 18:28:32 11° SE 18:32:01 10° SE daylight
04 Oct - 20:42:16 10° SSW 20:53:50 19° S 21:02:07 10° SE visible
04 Oct - 23:09:24 10° SW 23:18:27 18° SSW 23:24:52 10° SSE visible
05 Oct - 19:30:23 10° SSW 19:42:01 18° SSE 19:50:48 10° SE visible
05 Oct - 21:55:28 10° SW 22:07:14 21° S 22:15:16 10° SE visible
06 Oct - 00:25:27 10° SW 00:31:01 14° SSW 00:35:25 10° S visible
06 Oct - 18:20:11 10° S 18:30:04 15° SSE 18:38:10 10° ESE daylight
06 Oct - 20:42:05 10° SW 20:55:36 22° S 21:04:58 10° SE visible
06 Oct - 23:10:22 10° WSW 23:20:14 19° SSW 23:27:10 10° SSE visible
07 Oct - 17:14:31 10° SSE 17:18:10 11° SE 17:21:35 10° SE daylight
07 Oct - 19:29:30 10° SSW 19:43:39 21° SSE 19:53:58 10° ESE visible
07 Oct - 21:56:02 10° SW 22:09:00 23° S 22:17:44 10° SE visible
08 Oct - 00:27:11 10° WSW 00:32:41 13° SW 00:37:05 10° SSW visible
08 Oct - 18:18:12 10° S 18:31:32 19° SSE 18:42:00 10° ESE daylight
08 Oct - 20:42:13 10° SW 20:57:18 25° S 21:07:34 10° SE visible
08 Oct - 23:11:31 10° WSW 23:21:55 19° SSW 23:29:15 10° SSE visible
09 Oct - 17:09:04 10° SSE 17:19:25 15° SE 17:28:22 10° ESE daylight
09 Oct - 19:29:10 10° SSW 19:45:14 24° SSE 19:56:45 10° ESE visible
09 Oct - 21:56:48 10° WSW 22:10:40 24° SSW 22:20:00 10° SSE visible
10 Oct - 00:29:15 10° WSW 00:34:13 12° SW 00:38:20 10° SSW visible
10 Oct - 18:17:09 10° SSW 18:32:57 22° SSE 18:45:07 10° ESE daylight
10 Oct - 20:42:38 10° SW 20:58:55 27° S 21:09:59 10° SE visible
10 Oct - 23:12:48 10° WSW 23:23:30 19° SSW 23:31:08 10° S visible
11 Oct - 17:06:46 10° S 17:20:39 18° SSE 17:32:19 10° ESE daylight
11 Oct - 19:29:11 10° SW 19:46:45 27° S 19:59:16 10° ESE visible
11 Oct - 21:57:43 10° WSW 22:12:16 24° SSW 22:22:07 10° SSE visible
